Regional Weather Roundup
Issued by NWS Albany, NY

Home | Current Version | Previous Version | Graphics & Text | Print | Product List | Glossary Off
Versions: 1 2 3 4 5 6 7 8 9 10 11 12 13 14 15 16 17 18 19 20 21 22 23 24 25 26 27

000
ASUS41 KALY 280710
RWRALY

NEW YORK STATE HOURLY WEATHER ROUNDUP
NATIONAL WEATHER SERVICE ALBANY NY
300 AM EDT SUN AUG 28 2016

NOTE: "FAIR" INDICATES FEW OR NO CLOUDS BELOW 12,000 FEET WITH NO
SIGNIFICANT WEATHER AND/OR NO OBSTRUCTIONS TO VISIBILITY.

NYZ032-033-038>043-046>054-057>066-NYZ062>081-082-084-280800-
EAST


CITY           SKY/WX    TMP DP  RH WIND       PRES   REMARKS
ALBANY         PTCLDY    66  63  90 CALM      30.20F
GLENS FALLS    CLEAR     62  59  90 CALM      30.21S FOG
POUGHKEEPSIE   CLOUDY    64  62  93 CALM      30.20F
NEWBURGH       CLEAR     66  63  88 CALM      30.23F
MONTGOMERY     CLEAR     63  61  93 CALM      30.22S
WHITE PLAINS   CLEAR     66  61  84 CALM      30.22S
ISLIP          CLEAR     68  65  90 CALM      30.21F
NEW YORK CITY  PTCLDY    76  66  71 SE7       30.20F
CENTRAL PARK   CLEAR     74  61  63 VRB5      30.24S
$$

NYZ005>009-017-018-044>046-055-056-280800-
CENTRAL


CITY           SKY/WX    TMP DP  RH WIND       PRES   REMARKS
FULTON         CLOUDY    70  67  90 VRB3      30.15S
SYRACUSE       MOCLDY    66  65  96 E5        30.15S
ROME           CLEAR     64  62  93 SE3       30.19S
ELMIRA         CLEAR     63  60  90 CALM      30.19S
BINGHAMTON     CLEAR     65  61  87 S5        30.23S
MONTICELLO     CLEAR     61  61 100 CALM      30.26F
$$

NYZ026>034-041>043-087-280800-
NORTH


CITY           SKY/WX    TMP DP  RH WIND       PRES   REMARKS
WATERTOWN      CLOUDY    67  62  84 E3        30.14F
FORT DRUM      NOT AVBL
MASSENA        PTCLDY    64  58  80 NE3       30.18F
SARANAC LAKE   CLOUDY    56  54  93 CALM      30.23S
PLATTSBURGH    PTCLDY    61  58  90 CALM      30.20S
$$

NYZ001>004-010>016-019>021-085-280800-
WEST


CITY           SKY/WX    TMP DP  RH WIND       PRES   REMARKS
NIAGARA FALLS  CLOUDY    71  63  75 CALM      30.11S
BUFFALO        MOCLDY    73  64  73 SE3       30.12S
DUNKIRK        PTCLDY    78  66  66 S15       30.11S
JAMESTOWN      CLOUDY    70  63  78 S7        30.19S
WELLSVILLE     PTCLDY    71  63  75 VRB6      30.24S
ROCHESTER      MOCLDY    70  66  87 SW3       30.13F
PENN YAN       PTCLDY    70  65  84 SW5       30.18S
$$

             KEY
       WCI = WIND CHILL INDEX
       VSB = VISIBILITY
       HX  = HEAT INDEX
$$




USA.gov is the U.S. government's official web portal to all federal, state and local government web resources and services.